Weather History for K11R - December, 2013

Change the Weather History Date:

Tuesday, December 3, 2013

  Actual Average (KCLL) Record (KCLL)
Temperature  
Mean Temperature 70 °F 55 °F  
Max Temperature 81 °F 65 °F 86 °F (1995)
Min Temperature 59 °F 44 °F 27 °F (1915)
Degree Days  
Heating Degree Days 0 11  
Month to date heating degree days 33  
Since 1 July heating degree days 258  
Cooling Degree Days 5 1  
Month to date cooling degree days 3  
Year to date cooling degree days 3076  
Growing Degree Days 20 (Base 50)    
Moisture  
Dew Point 61 °F    
Average Humidity 77    
Maximum Humidity 93    
Minimum Humidity 43    
Precipitation  
Precipitation 0.00 in 0.10 in 3.02 in (1949)
Month to date precipitation 0.32  
Year to date precipitation 37.15  
Sea Level Pressure  
Sea Level Pressure 29.68 in    
Wind  
Wind Speed 5 mph (South)    
Max Wind Speed 13 mph    
Max Gust Speed 17 mph    
Visibility 8 miles    
Events      
T = Trace of Precipitation, MM = Missing Value Source: NWS Daily Summary

Daily Weather History Graph

Daily Weather History Graph

Search for Another Location

Airport or City:

Trip Planner

Search our weather history database for the weather conditions in past years. The results will help you decide how hot, cold, wet, or windy it might be!

Date:

Astronomy

Dec. 03, 2013 Rise Set
Actual Time 7:06 AM CST 5:24 PM CST
Civil Twilight 6:39 AM CST 5:50 PM CST
Nautical Twilight 6:10 AM CST 6:20 PM CST
Astronomical Twilight 5:41 AM CST 6:49 PM CST
Moon 7:38 AM CST (12/3) 6:27 PM CST (12/3)
Length of Visible Light 11h 11m
Length of Day
10h 18m
New Moon, 1% of the Moon is Illuminated
Dec 3
New Moon
Dec 9
First Quarter
Dec 17
Full
Dec 25
Last Quarter
Jan 1
New

Hourly Weather History & Observations

Time (CST) Temp. Heat Index Dew Point Humidity Pressure Visibility Wind Dir Wind Speed Gust Speed Precip Events Conditions
12:15 AM 64.4 °F - 60.6 °F 88% 29.71 in 10.0 mi SSW 4.6 mph - N/A   Clear
12:35 AM 63.9 °F - 60.3 °F 88% 29.71 in 10.0 mi SSW 4.6 mph - N/A   Clear
12:55 AM 63.5 °F - 59.9 °F 88% 29.71 in 10.0 mi SSW 4.6 mph - N/A   Clear
1:15 AM 63.3 °F - 60.1 °F 89% 29.70 in 7.0 mi Calm Calm - N/A   Clear
1:35 AM 62.8 °F - 59.9 °F 90% 29.70 in 7.0 mi SW 3.5 mph - N/A   Clear
1:55 AM 62.1 °F - 59.4 °F 91% 29.70 in 7.0 mi Calm Calm - N/A   Clear
2:15 AM 62.1 °F - 59.5 °F 91% 29.69 in 7.0 mi Calm Calm - N/A   Clear
2:35 AM 62.1 °F - 59.5 °F 91% 29.69 in 7.0 mi SSW 3.5 mph - N/A   Clear
2:55 AM 60.6 °F - 58.1 °F 91% 29.69 in 5.0 mi South 5.8 mph - N/A   Clear
3:15 AM 59.9 °F - 57.4 °F 91% 29.68 in 4.0 mi South 3.5 mph - N/A   Clear
3:35 AM 60.3 °F - 57.9 °F 92% 29.68 in 4.0 mi South 4.6 mph - N/A   Clear
3:55 AM 60.3 °F - 58.1 °F 93% 29.67 in 3.0 mi SSW 3.5 mph - N/A   Clear
4:15 AM 60.4 °F - 58.3 °F 93% 29.68 in 3.0 mi Calm Calm - N/A   Clear
4:35 AM 60.8 °F - 58.6 °F 93% 29.67 in 3.0 mi SW 3.5 mph - N/A   Clear
4:55 AM 60.8 °F - 58.5 °F 92% 29.67 in 3.0 mi Calm Calm - N/A   Clear
5:15 AM 60.3 °F - 58.1 °F 93% 29.67 in 3.0 mi Calm Calm - N/A   Clear
5:35 AM 59.5 °F - 57.4 °F 93% 29.67 in 3.0 mi South 4.6 mph - N/A   Clear
5:55 AM 59.4 °F - 57.2 °F 93% 29.67 in 5.0 mi Calm Calm - N/A   Clear
6:15 AM 59.9 °F - 57.7 °F 93% 29.68 in 5.0 mi SSW 3.5 mph - N/A   Clear
6:35 AM 60.1 °F - 58.1 °F 93% 29.69 in 5.0 mi SSW 4.6 mph - N/A   Clear
6:55 AM 60.3 °F - 58.1 °F 93% 29.69 in 5.0 mi SSW 4.6 mph - N/A   Clear
7:15 AM 59.9 °F - 57.6 °F 92% 29.69 in 4.0 mi SSW 4.6 mph - N/A   Clear
7:35 AM 60.1 °F - 57.7 °F 92% 29.70 in 4.0 mi SSW 3.5 mph - N/A   Clear
7:55 AM 61.0 °F - 58.5 °F 91% 29.70 in 5.0 mi SSW 4.6 mph - N/A   Clear
8:15 AM 62.1 °F - 59.2 °F 90% 29.71 in 7.0 mi SSW 4.6 mph - N/A   Clear
8:35 AM 63.7 °F - 59.7 °F 87% 29.72 in 7.0 mi SSW 4.6 mph - N/A   Clear
8:55 AM 65.3 °F - 60.3 °F 84% 29.71 in 10.0 mi SSW 5.8 mph - N/A   Clear
9:15 AM 66.9 °F - 60.4 °F 80% 29.72 in 10.0 mi SW 6.9 mph - N/A   Clear
9:35 AM 68.5 °F - 60.6 °F 76% 29.72 in 10.0 mi SSW 8.1 mph - N/A   Clear
9:55 AM 70.7 °F - 60.4 °F 70% 29.72 in 10.0 mi SSW 12.7 mph - N/A   Clear
10:15 AM 71.8 °F - 60.6 °F 68% 29.72 in 10.0 mi SSW 11.5 mph - N/A   Clear
10:35 AM 73.2 °F - 60.6 °F 65% 29.72 in 10.0 mi SW 9.2 mph - N/A   Clear
10:55 AM 74.5 °F - 60.8 °F 62% 29.72 in 10.0 mi South 9.2 mph - N/A   Clear
11:15 AM 75.0 °F - 61.0 °F 62% 29.71 in 10.0 mi South 11.5 mph - N/A   Clear
11:35 AM 76.1 °F - 60.6 °F 59% 29.71 in 10.0 mi SSW 9.2 mph - N/A   Clear
11:55 AM 77.7 °F - 60.8 °F 56% 29.69 in 10.0 mi SSW 11.5 mph - N/A   Clear
12:15 PM 78.6 °F - 60.6 °F 54% 29.68 in 10.0 mi South 11.5 mph - N/A   Clear
12:35 PM 79.5 °F - 58.6 °F 49% 29.67 in 10.0 mi South 9.2 mph 17.3 mph N/A   Clear
12:55 PM 80.4 °F 81.1 °F 59.4 °F 49% 29.66 in 10.0 mi SSW 11.5 mph - N/A   Clear
1:15 PM 80.8 °F 81.3 °F 59.5 °F 48% 29.65 in 10.0 mi South 10.4 mph - N/A   Clear
1:35 PM 81.1 °F 81.4 °F 58.6 °F 46% 29.65 in 10.0 mi SSW 9.2 mph - N/A   Clear
1:55 PM 80.6 °F 81.1 °F 59.2 °F 48% 29.64 in 10.0 mi South 6.9 mph - N/A   Clear
2:15 PM 79.7 °F - 59.7 °F 50% 29.64 in 10.0 mi South 10.4 mph 16.1 mph N/A   Clear
2:35 PM 80.2 °F 80.8 °F 58.8 °F 48% 29.63 in 10.0 mi South 8.1 mph - N/A   Clear
2:55 PM 81.1 °F 81.3 °F 58.1 °F 45% 29.63 in 10.0 mi South 10.4 mph - N/A   Clear
3:15 PM 81.7 °F 81.5 °F 57.2 °F 43% 29.62 in 10.0 mi SSW 11.5 mph - N/A   Clear
3:35 PM 81.7 °F 81.6 °F 58.1 °F 44% 29.62 in 10.0 mi South 8.1 mph - N/A   Clear
3:55 PM 80.4 °F 81.5 °F 61.7 °F 53% 29.63 in 10.0 mi SSE 6.9 mph - N/A   Clear
4:15 PM 79.7 °F - 62.2 °F 55% 29.63 in 10.0 mi SSE 9.2 mph - N/A   Clear
4:35 PM 78.4 °F - 62.6 °F 58% 29.63 in 10.0 mi South 8.1 mph - N/A   Clear
4:55 PM 77.4 °F - 62.6 °F 60% 29.64 in 10.0 mi South 6.9 mph - N/A   Clear
5:15 PM 75.4 °F - 62.8 °F 65% 29.64 in 10.0 mi South 6.9 mph - N/A   Clear
5:35 PM 74.1 °F - 62.8 °F 68% 29.64 in 10.0 mi South 3.5 mph - N/A   Clear
5:55 PM 73.4 °F - 62.6 °F 69% 29.64 in 10.0 mi SSE 3.5 mph - N/A   Clear
6:15 PM 72.1 °F - 62.6 °F 72% 29.64 in 10.0 mi Calm Calm - N/A   Clear
6:35 PM 72.0 °F - 62.4 °F 72% 29.65 in 10.0 mi South 5.8 mph - N/A   Clear
6:55 PM 72.0 °F - 63.0 °F 73% 29.66 in 10.0 mi South 6.9 mph - N/A   Clear
7:15 PM 71.1 °F - 63.9 °F 78% 29.67 in 10.0 mi SSE 4.6 mph - N/A   Clear
7:35 PM 70.3 °F - 63.9 °F 80% 29.68 in 10.0 mi SSE 4.6 mph - N/A   Clear
7:55 PM 70.0 °F - 63.7 °F 80% 29.68 in 10.0 mi SSE 4.6 mph - N/A   Clear
8:15 PM 69.3 °F - 63.7 °F 82% 29.69 in 10.0 mi SSE 4.6 mph - N/A   Clear
8:35 PM 68.2 °F - 63.5 °F 85% 29.69 in 10.0 mi SSE 4.6 mph - N/A   Clear
8:55 PM 68.0 °F - 63.5 °F 85% 29.70 in 10.0 mi Calm Calm - N/A   Clear
9:15 PM 67.1 °F - 63.1 °F 87% 29.70 in 10.0 mi SSE 3.5 mph - N/A   Clear
9:35 PM 66.4 °F - 63.0 °F 89% 29.71 in 7.0 mi SSE 3.5 mph - N/A   Clear
9:55 PM 66.4 °F - 63.1 °F 89% 29.71 in 7.0 mi South 4.6 mph - N/A   Clear
10:15 PM 66.6 °F - 63.5 °F 90% 29.71 in 7.0 mi South 4.6 mph - N/A   Clear
10:35 PM 66.6 °F - 63.5 °F 90% 29.71 in 7.0 mi South 5.8 mph - N/A   Clear
10:55 PM 66.7 °F - 63.7 °F 90% 29.71 in 7.0 mi South 4.6 mph - N/A   Clear
11:15 PM 67.1 °F - 63.9 °F 89% 29.72 in 5.0 mi South 5.8 mph - N/A   Clear
11:35 PM 67.1 °F - 64.0 °F 90% 29.72 in 5.0 mi South 5.8 mph - N/A   Clear
11:55 PM 66.6 °F - 63.9 °F 91% 29.72 in 5.0 mi South 4.6 mph - N/A   Clear